THORAD DELTA 1 DEB, 8405

Orbit data source: Space-Track

THORAD DELTA 1 DEB, 8405 is space debris in LEO originally from a launch on Fri, 15 Nov 1974 UTC launched from the Air Force Western Test Range (AFWTR). Debris objects in space refer to the collection of defunct objects orbiting the Earth. Examples of debris include non-operational satellites, rocket bodies, and fragments generated from explosions, collisions, or faulty payload assembly.

Loading next visibility...
Identifier
8405, 1974-089CH
Orbit
LEO
Country
Flag of USUS
Related business
Manufacturer
Unknown
Mission
Spacecraft
Bus & Motor
Unknown
Mass
Unknown
Launch date (UTC)
1974-11-15 (52 years ago)
Launch vehicle
Unknown
Launch site
Air Force Western Test Range (AFWTR)
Object type
Payload
Rocket body
Debris
Shape & HBR
Unknown shape, 0.1 m
Radar Cross Section
Medium (>0.1 m² and <1 m²)

Expand to show TLE details & history
Last TLE update: 18 hours ago

TLE from 18 hours ago
0 THORAD DELTA 1 DEB
1 08405U 74089CH  26207.17206428  .00000931  00000-0  15890-1 0  9999
2 08405 102.7258 101.4798 0693966 104.9296 262.9550 11.30636332135268
Epoch: 2026-07-26T04:07Z
TLE epoch observation values (Epoch: 2026-07-26T04:07:46.353Z)
Latitude
-0.00007°
Longitude
95.66287°
Altitude
2,120.117 km
Speed
6.805 km/s
True Right ascension
06h 45m 55s
True Declination
0° 00' 00"
Sunlit
Object was in daylight at epoch
Visualization orbit readout
Latitude
Unknown
Longitude
Unknown
Altitude
Unknown
Speed
Unknown
Apparent Right ascension
Unknown
Apparent Declination
Unknown
Sunlit
N/A
Visualization observer readout
Local Sidereal Time
10:58:40
Azimuth
Unknown
Elevation
Unknown
Doppler factor
Unknown
Orbital elements
Apogee altitude
2,586.69 km
Perigee altitude
1,423.177 km
Semi-major axis
8,383.07 km
Eccentricity
0.0694
Inclination
102.7258°
RAAN
101.4798°
Arg. of periapsis
104.9296°
True anomaly
255.16988°
Mean anomaly
262.955°
Eccentric anomaly
259.05124°
Mean motion
2.82773 °/min
Orbital period
127.31 mins
BSTAR
0.01589
Loading maneuver chart data...
Computing Atmospheric mass density...

Documentation

Showing up to 5 results
|